Flag for Liberia Weather past 2 weeks in Gbarnga, Liberia

Now
75 °F

Partly sunny.


Feels Like: 74 °F
Forecast: 68 / 79 °F
Wind: 5 mph from Southwest

Location: Roberts Field

Current Time: Jul 28, 2015 at 8:46:23 AM

Latest Report: Jul 28, 2015 at 8:30 AM


Visibility: N/A

Pressure: 29.98 "Hg

Humidity: 94%

Dew point: 73 °F

Location of GbarngaLocation

Historic Weather in Gbarnga — Graph

°F

Gbarnga temperature yesterday

Maximum temperature yesterday: 81 °F (at 2:00 PM)
Minimum temperature yesterday: 73 °F (at 5:00 AM)
Average temperature yesterday: 77 °F

Past Weeks' High & Low Weather Summary

 TemperatureHumidityPressure
High84 °F (Jul 18, 10:30 AM)100% (Jul 16, 6:00 PM)30.04 "Hg (Jul 16, 6:00 PM)
Low73 °F (Jul 13, 10:00 AM)70% (Jul 26, 12:30 PM)29.89 "Hg (Jul 13, 5:30 PM)
Average78 °F90%29.96 "Hg
* Reported Jul 13 7:00 AM — Jul 28 7:30 AM, Gbarnga, Weather by CustomWeather, © 2015

Note: Actual official high and low records may vary slightly from our data, if they occured in-between our weather recording intervals... More about our weather records

Advertising

Gbarnga weather history for previous 24 hours

 ConditionsComfort  
Time TempWeatherWind HumidityBarometerVisibility
7:30 AM
Tue, Jul 28
73 °FPassing clouds.6 mph89%29.95 "HgN/A
7:00 AM73 °FPassing clouds.No wind94%29.95 "HgN/A
6:00 AM73 °FPassing clouds.No wind94%29.95 "HgN/A
5:00 AM73 °FPassing clouds.No wind94%29.92 "HgN/A
4:30 AM73 °FPassing clouds.No wind94%29.92 "HgN/A
3:00 AM75 °FPassing clouds.No wind89%29.95 "HgN/A
2:30 AM75 °FPartly cloudy.No wind89%29.95 "HgN/A
1:30 AM75 °FPartly cloudy.No wind89%29.98 "HgN/A
1:00 AM75 °FPartly cloudy.6 mph89%29.98 "HgN/A
12:00 AM77 °FPassing clouds.6 mph83%30.01 "HgN/A
11:00 PM
Mon, Jul 27
77 °FPassing clouds.5 mph83%30.01 "HgN/A
9:00 PM77 °FPassing clouds.7 mph83%29.98 "HgN/A
8:30 PM77 °FPassing clouds.7 mph83%29.98 "HgN/A
8:00 PM77 °FPassing clouds.8 mph83%29.98 "HgN/A
7:30 PM77 °FPartly sunny.9 mph83%29.95 "HgN/A
7:00 PM77 °FPartly sunny.5 mph83%29.95 "HgN/A
6:30 PM77 °FPartly sunny.5 mph79%29.95 "HgN/A
6:00 PM77 °FPartly sunny.9 mph83%29.95 "HgN/A
5:30 PM77 °FPartly sunny.5 mph83%29.95 "HgN/A
5:00 PM79 °FPartly sunny.8 mph79%29.92 "HgN/A
4:00 PM79 °FPartly sunny.12 mph79%29.92 "HgN/A
3:30 PM79 °FPartly sunny.9 mph79%29.92 "HgN/A
3:00 PM79 °FPartly sunny.12 mph79%29.95 "HgN/A
2:30 PM81 °FPartly sunny.9 mph74%29.95 "HgN/A
2:00 PM81 °FPartly sunny.9 mph74%29.95 "HgN/A
11:00 AM79 °FPartly sunny.6 mph84%30.01 "HgN/A
10:30 AM79 °FPartly sunny.9 mph79%30.01 "HgN/A
10:00 AM79 °FPartly sunny.9 mph84%30.01 "HgN/A
9:30 AM77 °FPartly sunny.6 mph94%30.01 "HgN/A
9:00 AM75 °FPartly sunny.No wind94%30.01 "HgN/A
8:30 AM73 °FPartly sunny.No wind94%30.01 "HgN/A
8:00 AM73 °FPartly sunny.No wind94%29.98 "HgN/A
Weather by CustomWeather, © 2015

See weather overviewHow to use our weather pages